Location: *
(57.8420°S, 159.8600°W)
Time: 04:23:59
(UTC+00:00)

Meteor 1-26 Rocket - Pass Details

Date: 18 May 2021
Orbit: 807 x 928 km, 81.3° (Epoch: 20 June)

Event Time Altitude Azimuth Distance (km) Brightness Sun altitude
Rises 04:41:05 0° 196° (SSW) 3,624 7.6 -17.2°
Reaches altitude 10° 04:43:37 10° 194° (SSW) 2,676 6.9 -17.5°
Maximum altitude 04:49:46 74° 108° (ESE) 979 4.3 -18.3°
Drops below altitude 10° 04:55:47 10° 22° (NNE) 2,616 6.6 -19.1°
Sets 04:58:14 0° 20° (NNE) 3,537 7.3 -19.4°
